Florence, SC

7:14 AM EDT on October 17, 2017 (GMT -0400)
Florence Regional

Weather History for KFLO - July, 2013

Change the Weather History Date:

Sunday, July 14, 2013

  Actual Average Record
Temperature  
Mean Temperature 82 °F 81 °F  
Max Temperature 90 °F 91 °F 103 °F (1954)
Min Temperature 74 °F 72 °F 60 °F (2001)
Degree Days  
Heating Degree Days 0 0  
Month to date heating degree days 0 0  
Since 1 June heating degree days 0 1  
Since 1 July heating degree days 0 0  
Cooling Degree Days 17 16  
Month to date cooling degree days 216 224  
Year to date cooling degree days 907 928  
Since 1 June cooling degree days 640 621  
Growing Degree Days 31 (Base 50)    
Moisture  
Dew Point 72 °F    
Average Humidity 75    
Maximum Humidity 94    
Minimum Humidity 55    
Precipitation  
Precipitation 0.19 in 0.18 in 0.85 in (1975)
Month to date precipitation 8.67 2.22  
Year to date precipitation 35.78 22.20  
Sea Level Pressure  
Sea Level Pressure 30.19 in    
Wind  
Wind Speed 9 mph (ESE)    
Max Wind Speed 20 mph    
Max Gust Speed 29 mph    
Visibility 9 miles    
Events Rain    
T = Trace of Precipitation, MM = Missing Value Source: NWS Daily Summary

Daily Weather History Graph

Daily Weather History Graph

Search for Another Location

Airport or City:

Trip Planner

Search our weather history database for the weather conditions in past years. The results will help you decide how hot, cold, wet, or windy it might be!

Date:

Astronomy

Jul. 14, 2013 Rise Set
Actual Time 6:17 AM EDT 8:31 PM EDT
Civil Twilight 5:49 AM EDT 9:00 PM EDT
Nautical Twilight 5:14 AM EDT 9:35 PM EDT
Astronomical Twilight 4:36 AM EDT 10:12 PM EDT
Moon 12:13 PM EDT (7/14) No Moon Set
Length of Visible Light 15h 10m
Length of Day
14h 13m
Waxing Crescent, 35% of the Moon is Illuminated
Jul 14
Waxing Crescent
Jul 15
First Quarter
Jul 22
Full
Jul 29
Last Quarter
Aug 6
New

Hourly Weather History & Observations

Time (EDT) Temp. Heat Index Dew Point Humidity Pressure Visibility Wind Dir Wind Speed Gust Speed Precip Events Conditions
12:01 AM 75.2 °F - 73.4 °F 94% 30.11 in 10.0 mi ESE 5.8 mph - N/A   Scattered Clouds
12:14 AM 75.2 °F - 73.4 °F 94% 30.11 in 10.0 mi ESE 5.8 mph - N/A   Mostly Cloudy
12:53 AM 75.0 °F - 73.0 °F 94% 30.12 in 10.0 mi ESE 5.8 mph - N/A   Mostly Cloudy
1:17 AM 75.2 °F - 73.4 °F 94% 30.12 in 10.0 mi ESE 8.1 mph - N/A   Scattered Clouds
1:53 AM 75.0 °F - 73.0 °F 94% 30.12 in 10.0 mi ESE 6.9 mph - N/A   Clear
2:53 AM 75.0 °F - 73.0 °F 94% 30.13 in 10.0 mi ESE 4.6 mph - N/A   Overcast
3:20 AM 75.2 °F - 73.4 °F 94% 30.15 in 10.0 mi ESE 4.6 mph - N/A   Overcast
3:53 AM 75.0 °F - 73.0 °F 94% 30.14 in 10.0 mi ESE 4.6 mph - N/A   Overcast
4:00 AM 75.2 °F - 71.6 °F 89% 30.14 in 10.0 mi East 5.8 mph - N/A   Overcast
4:53 AM 73.9 °F - 72.0 °F 93% 30.15 in 10.0 mi East 6.9 mph - N/A   Scattered Clouds
5:53 AM 73.9 °F - 72.0 °F 93% 30.16 in 10.0 mi ENE 6.9 mph - N/A   Clear
6:53 AM 73.9 °F - 72.0 °F 93% 30.19 in 2.0 mi SSE 15.0 mph 28.8 mph 0.06 in Rain Rain
7:00 AM 73.4 °F - 71.6 °F 94% 30.20 in 0.8 mi ESE 11.5 mph 28.8 mph 0.12 in Rain Heavy Rain
7:03 AM 73.4 °F - 71.6 °F 94% 30.20 in 1.0 mi ESE 9.2 mph 23.0 mph 0.12 in Rain Light Rain
7:09 AM 73.4 °F - 71.6 °F 94% 30.20 in 4.0 mi ESE 10.4 mph - 0.12 in Rain Light Rain
7:53 AM 75.9 °F - 72.0 °F 87% 30.19 in 10.0 mi ESE 5.8 mph - 0.12 in   Mostly Cloudy
8:36 AM 78.8 °F - 73.4 °F 83% 30.21 in 10.0 mi East 5.8 mph - N/A   Partly Cloudy
8:53 AM 79.0 °F - 73.9 °F 84% 30.20 in 10.0 mi East 8.1 mph - N/A   Mostly Cloudy
9:15 AM 80.6 °F 86.2 °F 75.2 °F 84% 30.22 in 10.0 mi ESE 9.2 mph - N/A   Mostly Cloudy
9:53 AM 82.0 °F 87.9 °F 73.9 °F 76% 30.21 in 10.0 mi ESE 12.7 mph - 0.01 in   Mostly Cloudy
10:20 AM 84.2 °F 90.9 °F 73.4 °F 70% 30.21 in 10.0 mi ESE 15.0 mph - N/A   Scattered Clouds
10:31 AM 82.4 °F 88.2 °F 73.4 °F 74% 30.22 in 10.0 mi ESE 12.7 mph 19.6 mph N/A   Mostly Cloudy
10:40 AM 82.4 °F 88.2 °F 73.4 °F 74% 30.22 in 10.0 mi ESE 9.2 mph - N/A   Mostly Cloudy
10:49 AM 82.4 °F 88.2 °F 73.4 °F 74% 30.22 in 10.0 mi Variable 6.9 mph - N/A   Overcast
10:53 AM 84.0 °F 91.2 °F 73.9 °F 72% 30.22 in 10.0 mi ESE 12.7 mph 17.3 mph N/A   Overcast
11:05 AM 84.2 °F 90.9 °F 73.4 °F 70% 30.23 in 10.0 mi ESE 12.7 mph - N/A   Mostly Cloudy
11:53 AM 87.1 °F 93.6 °F 72.0 °F 61% 30.23 in 10.0 mi East 17.3 mph 24.2 mph N/A   Scattered Clouds
12:53 PM 87.1 °F 92.8 °F 71.1 °F 59% 30.23 in 10.0 mi ESE 10.4 mph - N/A   Scattered Clouds
1:53 PM 89.1 °F 95.0 °F 71.1 °F 55% 30.22 in 10.0 mi SSE 16.1 mph - N/A   Scattered Clouds
2:53 PM 89.1 °F 95.0 °F 71.1 °F 55% 30.21 in 10.0 mi ESE 13.8 mph - N/A   Partly Cloudy
3:53 PM 89.1 °F 95.0 °F 71.1 °F 55% 30.20 in 10.0 mi SSE 13.8 mph - N/A   Clear
4:53 PM 88.0 °F 94.7 °F 72.0 °F 59% 30.19 in 10.0 mi ESE 12.7 mph - N/A   Scattered Clouds
5:53 PM 88.0 °F 92.9 °F 70.0 °F 55% 30.19 in 10.0 mi SE 13.8 mph - N/A   Partly Cloudy
6:53 PM 86.0 °F 91.5 °F 71.1 °F 61% 30.19 in 10.0 mi SE 8.1 mph - N/A   Clear
7:53 PM 82.9 °F 87.0 °F 70.0 °F 65% 30.21 in 10.0 mi ESE 5.8 mph - N/A   Clear
8:53 PM 80.1 °F 83.8 °F 72.0 °F 76% 30.22 in 10.0 mi East 3.5 mph - N/A   Clear
9:53 PM 78.1 °F - 72.0 °F 81% 30.25 in 10.0 mi ESE 3.5 mph - N/A   Clear
10:53 PM 77.0 °F - 72.0 °F 84% 30.25 in 10.0 mi ENE 3.5 mph - N/A   Clear
11:53 PM 75.9 °F - 72.0 °F 87% 30.25 in 10.0 mi ENE 4.6 mph - N/A   Clear